Location: Azul
(36.7830°S, 59.8500°W)
Time: 02:32:21
(UTC-03:00)

ISS - Pass Details

Date: 30 November 2020
Orbit: 418 x 420 km, 51.6° (Epoch: 04 December)

Event Time Altitude Azimuth Distance (km) Brightness Sun altitude
Exits shadow 02:30:37 15° 101° (ESE) 1,243 -1.0 -26.7°
Drops below altitude 10° 02:31:27 10° 110° (ESE) 1,525 -0.4 -26.6°
Sets 02:33:44 0° 121° (ESE) 2,398 1.0 -26.4°
